Location: ????????
(60.4333°N, 46.4710°E)
Time: 04:46:41
(UTC+00:00)

SL-08 R/B - Pass Details

Date: 25 November 2020
Orbit: 950 x 1018 km, 82.9° (Epoch: 19 January)

Event Time Altitude Azimuth Distance (km) Brightness Sun altitude
Rises 15:12:03 0° 346° (NNW) 3,688 7.7 -21.8°
Reaches altitude 10° 15:14:36 10° 347° (NNW) 2,727 6.9 -22.2°
Maximum altitude 15:20:51 87° 76° (ENE) 971 4.4 -22.9°
Drops below altitude 10° 15:27:00 10° 167° (SSE) 2,679 6.7 -23.7°
Sets 15:29:28 0° 168° (SSE) 3,618 7.4 -24.0°
